Juneau, AK

8:13 PM AKDT on July 20, 2017 (GMT -0800)
Juneau International

Weather History for PAJN - May, 2013

Change the Weather History Date:

Saturday, May 18, 2013

  Actual Average Record
Temperature  
Mean Temperature 43 °F 49 °F  
Max Temperature 48 °F 57 °F 74 °F (1963)
Min Temperature 38 °F 41 °F 27 °F (1965)
Degree Days  
Heating Degree Days 22 16  
Month to date heating degree days 335 325  
Since 1 July heating degree days 8352 7853  
Cooling Degree Days 0 0  
Month to date cooling degree days 0 0  
Year to date cooling degree days 0 0  
Moisture  
Dew Point 42 °F    
Average Humidity 82    
Maximum Humidity 93    
Minimum Humidity 70    
Precipitation  
Precipitation 0.38 in 0.12 in 0.49 in (1955)
Month to date precipitation 3.95 1.94  
Year to date precipitation 26.99 18.14  
Sea Level Pressure  
Sea Level Pressure 29.89 in    
Wind  
Wind Speed 11 mph (ESE)    
Max Wind Speed 25 mph    
Max Gust Speed 32 mph    
Visibility 9 miles    
Events Rain    
T = Trace of Precipitation, MM = Missing Value Source: NWS Daily Summary

Daily Weather History Graph

Daily Weather History Graph

Search for Another Location

Airport or City:

Trip Planner

Search our weather history database for the weather conditions in past years. The results will help you decide how hot, cold, wet, or windy it might be!

Date:

Astronomy

May. 18, 2013 Rise Set
Actual Time 4:24 AM AKDT 9:26 PM AKDT
Civil Twilight 3:25 AM AKDT 10:25 PM AKDT
Nautical Twilight 1:05 AM AKDT 12:22 AM AKDT
Astronomical Twilight Sun does not set Sun does not set
Moon 1:05 PM AKDT (5/18) 1:57 AM AKDT (5/18)
Length of Visible Light 19h 00m
Length of Day
17h 01m
First Quarter, 56% of the Moon is Illuminated
May 18
First Quarter
May 24
Full
May 31
Last Quarter
Jun 8
New
Jun 16
First Quarter

Hourly Weather History & Observations

Time (AKDT) Temp. Windchill Dew Point Humidity Pressure Visibility Wind Dir Wind Speed Gust Speed Precip Events Conditions
12:53 AM 46.9 °F - 45.0 °F 93% 29.71 in 10.0 mi East 12.7 mph - 0.01 in Rain Light Rain
1:53 AM 46.9 °F - 45.0 °F 93% 29.71 in 10.0 mi East 13.8 mph - 0.03 in Rain Light Rain
2:53 AM 48.0 °F - 45.0 °F 89% 29.72 in 10.0 mi ESE 19.6 mph - 0.02 in Rain Light Rain
3:17 AM 48.0 °F - 45.0 °F 89% 29.71 in 10.0 mi ESE 17.3 mph - 0.00 in Rain Light Rain
3:53 AM 48.0 °F - 45.0 °F 89% 29.72 in 10.0 mi ESE 19.6 mph - 0.00 in   Overcast
4:53 AM 48.0 °F - 44.1 °F 86% 29.73 in 10.0 mi ESE 18.4 mph 27.6 mph 0.00 in   Overcast
5:53 AM 48.0 °F - 44.1 °F 86% 29.75 in 10.0 mi ESE 18.4 mph - N/A   Overcast
6:53 AM 46.9 °F - 44.1 °F 90% 29.75 in 10.0 mi ESE 16.1 mph - N/A   Overcast
7:48 AM 48.2 °F - 44.6 °F 87% 29.75 in 10.0 mi ESE 18.4 mph - N/A   Overcast
7:53 AM 48.0 °F - 45.0 °F 89% 29.75 in 9.0 mi ESE 18.4 mph - N/A   Overcast
8:25 AM 48.0 °F - 45.0 °F 89% 29.75 in 5.0 mi ESE 18.4 mph - 0.00 in Rain Light Rain
8:53 AM 46.9 °F - 45.0 °F 93% 29.76 in 5.0 mi SE 21.9 mph 32.2 mph 0.01 in Rain Light Rain
9:53 AM 46.0 °F 38.8 °F 43.0 °F 89% 29.79 in 5.0 mi ESE 18.4 mph 27.6 mph 0.09 in Rain Rain
10:53 AM 46.9 °F - 44.1 °F 90% 29.81 in 6.0 mi East 12.7 mph - 0.07 in Rain Light Rain
11:43 AM 46.9 °F - 44.1 °F 90% 29.85 in 5.0 mi SE 21.9 mph 29.9 mph 0.01 in Rain Rain
11:53 AM 46.9 °F - 44.1 °F 90% 29.86 in 5.0 mi SE 13.8 mph 21.9 mph 0.04 in Rain Rain
12:19 PM 46.9 °F - 39.0 °F 74% 29.88 in 6.0 mi Calm Calm - 0.04 in Rain Light Rain
12:53 PM 46.0 °F 43.9 °F 44.1 °F 93% 29.89 in 6.0 mi Variable 4.6 mph - 0.05 in Rain Light Rain
1:53 PM 46.9 °F - 42.1 °F 83% 29.92 in 10.0 mi East 6.9 mph - 0.00 in   Overcast
2:53 PM 46.9 °F - 43.0 °F 86% 29.95 in 10.0 mi Variable 3.5 mph - 0.00 in Rain Light Rain
3:53 PM 46.9 °F - 42.1 °F 83% 29.99 in 10.0 mi WNW 6.9 mph - 0.01 in Rain Light Rain
4:53 PM 46.0 °F 41.4 °F 42.1 °F 86% 30.03 in 10.0 mi West 9.2 mph - 0.01 in Rain Light Rain
5:53 PM 43.0 °F 36.0 °F 37.9 °F 82% 30.07 in 10.0 mi West 13.8 mph - 0.04 in Rain Light Rain
6:53 PM 43.0 °F 40.3 °F 37.0 °F 80% 30.09 in 10.0 mi WNW 4.6 mph - 0.01 in   Overcast
7:53 PM 44.1 °F 41.5 °F 35.1 °F 71% 30.12 in 10.0 mi South 4.6 mph - N/A   Overcast
8:53 PM 42.1 °F - 36.0 °F 79% 30.15 in 10.0 mi Calm Calm - N/A   Overcast
9:53 PM 39.9 °F 37.8 °F 37.9 °F 93% 30.18 in 10.0 mi East 3.5 mph - 0.00 in Rain Light Rain
10:53 PM 39.0 °F - 37.0 °F 93% 30.21 in 10.0 mi Calm Calm - 0.00 in   Overcast
11:53 PM 39.9 °F 37.8 °F 35.1 °F 83% 30.22 in 10.0 mi Variable 3.5 mph - N/A   Overcast